Home > Weather > Alicante > Past weeks

Flag for Spain Past Weather in Alicante, Spain — Yesterday and Last 2 Weeks

Now
82 °F

Passing clouds.


Feels Like: 83 °F
Forecast: 68 / 85 °F
Wind: 10 mph from Northeast

Location: Alicante / El Altet

Current Time: Aug 25, 2016 at 12:00:33 PM

Latest Report: Aug 25, 2016 at 11:30 AM


Visibility: N/A

Pressure: 30.04 "Hg

Humidity: 48%

Dew Point: 61 °F

Location of AlicanteLocation

Past Weather in Alicante — Graph

°F

Alicante Temperature Yesterday

Maximum temperature yesterday: 84 °F (at 2:00 PM)
Minimum temperature yesterday: 70 °F (at 5:00 AM)
Average temperature yesterday: 77 °F

High & Low Weather Summary for the Past Weeks

 TemperatureHumidityPressure
High93 °F (Aug 17, 2:00 PM)94% (Aug 20, 2:30 AM)30.27 "Hg (Aug 20, 2:30 AM)
Low66 °F (Aug 13, 7:00 AM)31% (Aug 24, 4:00 PM)29.80 "Hg (Aug 18, 8:30 PM)
Average78 °F68%30.06 "Hg
* Reported Aug 10 11:00 AM — Aug 25 11:00 AM, Alicante, Weather by CustomWeather, © 2016

Note: Actual official high and low records may vary slightly from our data, if they occured in-between our weather recording intervals... More about our weather records

Advertising

Alicante Weather History for the Previous 24 Hours

Scroll right to see more
 ConditionsComfort  
Time TempWeatherWind HumidityBarometerVisibility
11:00 AM
Thu, Aug 25
81 °FPassing clouds.9 mph51%30.04 "HgN/A
10:30 AM81 °FPassing clouds.7 mph51%30.04 "HgN/A
10:00 AM79 °FPassing clouds.3 mph54%30.04 "HgN/A
9:30 AM79 °FPassing clouds.2 mph58%30.04 "HgN/A
9:00 AM75 °FPassing clouds.3 mph61%30.04 "HgN/A
8:30 AM73 °FPassing clouds.5 mph65%30.04 "HgN/A
8:00 AM70 °FPassing clouds.5 mph69%30.04 "HgN/A
7:30 AM70 °FPassing clouds.6 mph69%30.01 "HgN/A
7:00 AM70 °FPassing clouds.6 mph69%30.04 "HgN/A
6:30 AM68 °FClear.5 mph78%30.01 "Hg10 mi
6:00 AM70 °FClear.6 mph73%30.01 "Hg10 mi
5:30 AM70 °FClear.6 mph73%30.01 "Hg10 mi
5:00 AM70 °FClear.7 mph78%30.01 "Hg10 mi
4:30 AM70 °FClear.5 mph78%30.01 "Hg10 mi
4:00 AM72 °FClear.6 mph73%30.01 "Hg10 mi
3:30 AM72 °FClear.7 mph73%30.04 "Hg10 mi
3:00 AM72 °FClear.7 mph73%30.04 "Hg10 mi
2:30 AM72 °FClear.3 mph73%30.04 "Hg10 mi
2:00 AM73 °FClear.5 mph69%30.04 "Hg10 mi
1:30 AM73 °FClear.3 mph74%30.04 "Hg10 mi
1:00 AM75 °FClear.1 mph69%30.07 "Hg10 mi
12:30 AM77 °FClear.9 mph69%30.04 "Hg10 mi
12:00 AM77 °FClear.9 mph65%30.04 "Hg10 mi
11:30 PM
Wed, Aug 24
77 °FClear.9 mph65%30.07 "Hg10 mi
11:00 PM77 °FClear.8 mph65%30.07 "Hg10 mi
10:30 PM77 °FClear.9 mph69%30.07 "Hg10 mi
10:00 PM77 °FClear.9 mph65%30.04 "Hg10 mi
9:30 PM77 °FSunny.8 mph65%30.04 "Hg10 mi
9:00 PM77 °FSunny.8 mph69%30.04 "Hg10 mi
8:30 PM79 °FSunny.9 mph65%30.04 "Hg10 mi
8:00 PM79 °FSunny.12 mph65%30.04 "Hg10 mi
7:30 PM79 °FPassing clouds.10 mph70%30.04 "HgN/A
7:00 PM81 °FPassing clouds.13 mph66%30.04 "HgN/A
6:30 PM81 °FPassing clouds.13 mph66%30.04 "HgN/A
6:00 PM81 °FSunny.13 mph62%30.04 "Hg10 mi
5:30 PM82 °FPassing clouds.13 mph55%30.04 "HgN/A
5:00 PM82 °FSunny.13 mph51%30.07 "Hg10 mi
4:30 PM84 °FPassing clouds.13 mph43%30.07 "HgN/A
4:00 PM84 °FPassing clouds.13 mph31%30.09 "HgN/A
3:30 PM84 °FSunny.13 mph37%30.09 "Hg10 mi
3:00 PM84 °FSunny.14 mph35%30.09 "Hg10 mi
2:30 PM84 °FPassing clouds.12 mph37%30.09 "HgN/A
2:00 PM84 °FSunny.13 mph45%30.09 "Hg10 mi
1:30 PM82 °FPassing clouds.12 mph51%30.12 "HgN/A
1:00 PM82 °FPassing clouds.12 mph55%30.12 "HgN/A
12:30 PM81 °FPassing clouds.15 mph62%30.12 "HgN/A
12:00 PM81 °FPassing clouds.14 mph58%30.12 "HgN/A
Weather by CustomWeather, © 2016

See weather overviewHow to use our weather pages